Weather History for KRAP - September, 2013

Change the Weather History Date:

Wednesday, September 11, 2013

  Actual Average Record
Temperature  
Mean Temperature 69 °F 63 °F  
Max Temperature 84 °F 78 °F 94 °F (1948)
Min Temperature 54 °F 48 °F 29 °F (1989)
Degree Days  
Heating Degree Days 0 5  
Month to date heating degree days 0 37  
Since 1 July heating degree days 5 74  
Cooling Degree Days 4 3  
Month to date cooling degree days 100 38  
Year to date cooling degree days 691 610  
Growing Degree Days 19 (Base 50)    
Moisture  
Dew Point 49 °F    
Average Humidity 59    
Maximum Humidity 93    
Minimum Humidity 24    
Precipitation  
Precipitation 0.00 in 0.04 in 0.37 in (2014)
Month to date precipitation 0.53 0.47  
Year to date precipitation 14.59 13.10  
Snow  
Snow 0.00 in 0.00 in - ()
Month to date snowfall 0.0 0.0  
Since 1 July snowfall 0.0 0.0  
Since 1 September snowfall 0.0 0.0  
Snow Depth 0.00 in    
Sea Level Pressure  
Sea Level Pressure 30.17 in    
Wind  
Wind Speed 5 mph (NNW)    
Max Wind Speed 12 mph    
Max Gust Speed 15 mph    
Visibility 10 miles    
Events      
T = Trace of Precipitation, MM = Missing Value Source: NWS Daily Summary

Daily Weather History Graph

Daily Weather History Graph

Search for Another Location

Airport or City:

Trip Planner

Search our weather history database for the weather conditions in past years. The results will help you decide how hot, cold, wet, or windy it might be!

Date:

Astronomy

Sep. 11, 2013 Rise Set
Actual Time 6:27 AM MDT 7:09 PM MDT
Civil Twilight 5:57 AM MDT 7:38 PM MDT
Nautical Twilight 5:23 AM MDT 8:13 PM MDT
Astronomical Twilight 4:47 AM MDT 8:48 PM MDT
Moon 1:11 PM MDT (9/11) 10:53 PM MDT (9/11)
Length of Visible Light 13h 40m
Length of Day
12h 42m
Waxing Crescent, 39% of the Moon is Illuminated
Sep 11
Waxing Crescent
Sep 12
First Quarter
Sep 19
Full
Sep 26
Last Quarter
Oct 4
New

Hourly Weather History & Observations

Time (MDT) Temp. Dew Point Humidity Pressure Visibility Wind Dir Wind Speed Gust Speed Precip Events Conditions
12:52 AM 55.0 °F 52.0 °F 89% 30.12 in 10.0 mi NW 3.5 mph - N/A   Clear
1:52 AM 54.0 °F 51.1 °F 90% 30.14 in 10.0 mi WNW 3.5 mph - N/A   Clear
2:52 AM 55.9 °F 52.0 °F 87% 30.13 in 10.0 mi West 6.9 mph - N/A   Clear
3:52 AM 54.0 °F 51.1 °F 90% 30.14 in 10.0 mi NW 5.8 mph - N/A   Clear
4:52 AM 55.0 °F 51.1 °F 86% 30.14 in 10.0 mi NW 5.8 mph - N/A   Clear
5:52 AM 55.0 °F 51.1 °F 86% 30.15 in 10.0 mi WNW 3.5 mph - N/A   Clear
6:52 AM 57.0 °F 51.1 °F 81% 30.16 in 10.0 mi WNW 5.8 mph - N/A   Clear
7:52 AM 61.0 °F 53.1 °F 75% 30.17 in 10.0 mi WNW 3.5 mph - N/A   Clear
8:52 AM 64.9 °F 52.0 °F 63% 30.18 in 10.0 mi West 4.6 mph - N/A   Clear
9:52 AM 70.0 °F 54.0 °F 57% 30.19 in 10.0 mi Calm Calm - N/A   Clear
10:52 AM 73.9 °F 54.0 °F 50% 30.19 in 10.0 mi Calm Calm - N/A   Clear
11:52 AM 73.9 °F 52.0 °F 46% 30.19 in 10.0 mi Calm Calm - N/A   Clear
12:52 PM 80.1 °F 44.1 °F 28% 30.17 in 10.0 mi Variable 3.5 mph - N/A   Clear
1:52 PM 81.0 °F 44.1 °F 27% 30.16 in 10.0 mi Variable 3.5 mph - N/A   Clear
2:52 PM 84.0 °F 46.0 °F 26% 30.14 in 10.0 mi North 6.9 mph - N/A   Clear
3:52 PM 82.0 °F 43.0 °F 25% 30.15 in 10.0 mi Variable 6.9 mph - N/A   Clear
4:52 PM 81.0 °F 43.0 °F 26% 30.15 in 10.0 mi NE 8.1 mph - N/A   Clear
5:52 PM 77.0 °F 44.1 °F 31% 30.15 in 10.0 mi NNE 5.8 mph - N/A   Clear
6:52 PM 71.1 °F 51.1 °F 49% 30.17 in 10.0 mi NNE 6.9 mph - N/A   Clear
7:52 PM 66.0 °F 46.9 °F 50% 30.18 in 10.0 mi North - - 0.00 in   Scattered Clouds
8:52 PM 64.0 °F 46.0 °F 52% 30.19 in 10.0 mi NNE 8.1 mph - N/A   Clear
9:52 PM 62.1 °F 46.9 °F 58% 30.20 in 10.0 mi Calm Calm - N/A   Clear
10:52 PM 62.1 °F 46.0 °F 56% 30.20 in 10.0 mi ENE 3.5 mph - N/A   Clear
11:52 PM 60.1 °F 48.0 °F 64% 30.21 in 10.0 mi NNE 11.5 mph - N/A   Clear